User: anonymous   Login
Location: Arezzo
(43.4170°N, 11.8830°E)
Time: 22:54:13
(UTC+02:00)
Language:

STARLINK-2754 - Orbit

View from above orbital plane
View from above orbital plane
View from above satellite
View from above satellite

Ground track
Ground track

The orbit data is extracted from the following two-line orbital elements,

1 48641C 21044D   21267.49774940 -.00001868  00000-0 -12522-3 0  2674
2 48641  53.0542 226.3577 0001488  70.5494 319.6152 15.06389256    19
Epoch (UTC): 24 September 2021 11:56:45
Eccentricity: 0.0001488
inclination: 53.0542°
perigee height: 546 km
apogee height: 548 km
right ascension of ascending node: 226.3577°
argument of perigee: 70.5494°
revolutions per day: 15.06389256
mean anomaly at epoch: 319.6152°
orbit number at epoch: 1

The dashed part of the orbit path shows where the satellite is in the earth's shadow,  

DLR